Weather History for Rome, GA

Change the Weather History Date:

Thursday, November 27, 2014

  Actual Average Record
Temperature  
Mean Temperature 41 °F 47 °F  
Max Temperature 49 °F 58 °F 75 °F (2001)
Min Temperature 33 °F 36 °F 25 °F (2013)
Degree Days  
Heating Degree Days 24 18  
Month to date heating degree days 508 373  
Since 1 July heating degree days 641 550  
Moisture  
Dew Point 28 °F    
Average Humidity 60    
Maximum Humidity 70    
Minimum Humidity 49    
Precipitation  
Precipitation 0.00 in 0.19 in 0.72 in (2003)
Month to date precipitation 4.21 4.27  
Year to date precipitation 42.81 46.96  
Sea Level Pressure  
Sea Level Pressure 30.28 in    
Wind  
Wind Speed 9 mph (NW)    
Max Wind Speed 21 mph    
Max Gust Speed 31 mph    
Visibility 10 miles    
Events      
T = Trace of Precipitation, MM = Missing Value Source: NWS Daily Summary

Daily Weather History Graph

Daily Weather History Graph

Search for Another Location

Airport:

Trip Planner

Search our weather history database for the weather conditions in past years. The results will help you decide how hot, cold, wet, or windy it might be!

Date:

Astronomy

Nov. 27, 2014 Rise Set
Actual Time 7:25 AM EST 5:31 PM EST
Civil Twilight 6:57 AM EST 5:58 PM EST
Nautical Twilight 6:26 AM EST 6:29 PM EST
Astronomical Twilight 5:56 AM EST 6:59 PM EST
Moon 11:45 AM EST (11/27) 11:03 PM EST (11/27)
Length of Visible Light 11h 00m
Length of Day
10h 06m
Waxing Crescent, 31% of the Moon is Illuminated
Nov 27
Waxing Crescent
Nov 29
First Quarter
Dec 6
Full
Dec 14
Last Quarter
Dec 21
New

Hourly Weather History & Observations

Time (EST) Temp. Windchill Dew Point Humidity Pressure Visibility Wind Dir Wind Speed Gust Speed Precip Events Conditions
12:53 AM 46.0 °F 40.6 °F 28.9 °F 51% 30.08 in 10.0 mi West 11.5 mph 21.9 mph N/A   Clear
1:53 AM 44.1 °F 40.1 °F 30.9 °F 60% 30.09 in 10.0 mi West 6.9 mph - N/A   Clear
2:53 AM 44.1 °F 38.1 °F 30.9 °F 60% 30.11 in 10.0 mi West 11.5 mph - N/A   Mostly Cloudy
3:53 AM 41.0 °F 35.8 °F 30.9 °F 67% 30.13 in 10.0 mi West 8.1 mph - N/A   Scattered Clouds
4:53 AM 41.0 °F 38.0 °F 30.9 °F 67% 30.14 in 10.0 mi Variable 4.6 mph - N/A   Partly Cloudy
5:53 AM 39.0 °F 34.8 °F 30.9 °F 73% 30.16 in 10.0 mi West 5.8 mph - N/A   Partly Cloudy
6:53 AM 39.9 °F 35.1 °F 30.9 °F 70% 30.20 in 10.0 mi West 6.9 mph - N/A   Mostly Cloudy
7:53 AM 41.0 °F 35.8 °F 30.9 °F 67% 30.21 in 10.0 mi West 8.1 mph - N/A   Mostly Cloudy
8:53 AM 42.1 °F 36.1 °F 32.0 °F 67% 30.25 in 10.0 mi WNW 10.4 mph - N/A   Mostly Cloudy
9:53 AM 44.1 °F 37.1 °F 30.9 °F 60% 30.27 in 10.0 mi NW 15.0 mph 23.0 mph N/A   Scattered Clouds
10:53 AM 44.1 °F 38.1 °F 28.9 °F 55% 30.31 in 10.0 mi NNW 11.5 mph 20.7 mph N/A   Overcast
11:53 AM 43.0 °F 35.7 °F 28.0 °F 56% 30.33 in 10.0 mi NW 15.0 mph - N/A   Overcast
12:53 PM 43.0 °F 36.8 °F 28.0 °F 56% 30.32 in 10.0 mi NW 11.5 mph - N/A   Overcast
1:53 PM 43.0 °F 38.2 °F 28.0 °F 56% 30.33 in 10.0 mi NW 8.1 mph - N/A   Overcast
2:53 PM 43.0 °F 37.2 °F 28.0 °F 56% 30.33 in 10.0 mi WNW 10.4 mph - N/A   Overcast
3:53 PM 42.1 °F 36.6 °F 28.0 °F 58% 30.34 in 10.0 mi NW 9.2 mph - N/A   Mostly Cloudy
4:53 PM 41.0 °F 37.1 °F 27.0 °F 57% 30.36 in 10.0 mi NNW 5.8 mph - N/A   Overcast
5:53 PM 41.0 °F 35.8 °F 27.0 °F 57% 30.38 in 10.0 mi NW 8.1 mph - N/A   Overcast
6:53 PM 39.9 °F 32.5 °F 26.1 °F 58% 30.38 in 10.0 mi NNW 12.7 mph - N/A   Overcast
7:53 PM 39.9 °F 35.1 °F 25.0 °F 55% 30.39 in 10.0 mi NW 6.9 mph - N/A   Overcast
8:53 PM 37.9 °F 32.7 °F 25.0 °F 60% 30.40 in 10.0 mi North 6.9 mph - N/A   Partly Cloudy
9:53 PM 35.1 °F 32.2 °F 24.1 °F 64% 30.41 in 10.0 mi NNW 3.5 mph - N/A   Scattered Clouds
10:53 PM 34.0 °F 27.2 °F 24.1 °F 67% 30.43 in 10.0 mi North 8.1 mph - N/A   Clear
11:53 PM 33.1 °F 24.9 °F 23.0 °F 66% 30.43 in 10.0 mi North 10.4 mph - N/A   Clear